Simultaneous Nadir Overpasses (SNOs) Predictions

Prediction of SNOs between NOAA-19 and TERRA Satellite Orbit:

Table of predicted SNOs for the next 14.0 days since TLE Epoch: 6/1/2014
Index Date (NOAA-19) Time (NOAA-19) Lat,Lon (NOAA-19) SZA (NOAA-19 ) Date (TERRA) Time (TERRA) Lat,Lon (TERRA) SZA (TERRA ) Distance(km) Time Diff (sec)
1 06/01/2014 08:42:32 -70.54,-129.25 131.61 06/01/2014 08:42:56 -70.54,-129.20 131.61 1.63 24
2 06/01/2014 09:33:37 70.35, 38.28 48.20 06/01/2014 09:32:25 70.34, 38.15 48.18 5.12 72
3 06/03/2014 13:26:24 -70.55, 159.79 131.88 06/03/2014 13:27:14 -70.54, 159.71 131.90 3.60 50
4 06/03/2014 14:17:29 70.42, -32.77 47.98 06/03/2014 14:16:40 70.44, -32.78 48.00 2.27 49
5 06/05/2014 18:10:17 -70.68, 88.64 132.01 06/05/2014 18:11:29 -70.63, 88.78 132.06 7.49 72
6 06/05/2014 19:01:22 70.50,-103.84 47.81 06/05/2014 19:00:57 70.47,-103.81 47.78 3.18 25
7 06/07/2014 23:45:13 70.49,-174.76 47.58 06/07/2014 23:45:14 70.50,-174.84 47.59 3.33 1
8 06/08/2014 00:36:00 -70.05, -6.80 132.85 06/08/2014 00:34:49 -70.12, -7.77 132.81 37.47 71
9 06/10/2014 04:29:06 70.59, 114.13 47.49 06/10/2014 04:29:30 70.57, 114.19 47.47 3.10 24
10 06/10/2014 05:19:59 -70.45, -78.38 132.64 06/10/2014 05:19:00 -70.46, -78.34 132.64 1.81 59
11 06/12/2014 09:12:57 70.60, 43.18 47.35 06/12/2014 09:13:47 70.58, 43.13 47.33 3.08 50
12 06/12/2014 10:03:51 -70.50,-149.39 132.75 06/12/2014 10:03:17 -70.47,-149.39 132.78 2.96 34
13 06/14/2014 13:56:50 70.72, -27.97 47.35 06/14/2014 13:58:02 70.68, -27.78 47.32 8.18 72
14 06/14/2014 14:47:43 -70.55, 139.58 132.82 06/14/2014 14:47:33 -70.53, 139.62 132.85 3.03 10




NCC Satellite Simultaneous Nadir Overpasses (SNOs) Prediction Service
